Temp
18 18 18 18 18 18 18 18 18 18 18 18 17 17 17 17 17 17 17 17 18 18 18 18 18 18 19 18 19 18 12 13 17 18 17 14 15 13 11 9 8 7 7 7 9
18 18 18 18 18 18 18 18 18 18 18 17 17 18 18 17 18 17 17 17 18 18 18 18 19 19 19 19 19 15 12 17 18 17 10 9 11 12 10 8 8 8 9 8 9
18 18 18 18 18 18 18 18 18 18 18 17 17 17 17 17 18 16 17 17 18 18 18 18 19 19 18 18 17 16 15 17 17 18 16 11 8 10 10 7 6 6 6 8 9
18 17 18 18 19 19 18 18 18 18 18 18 18 17 17 17 15 17 17 17 18 18 18 19 19 19 16 16 17 16 17 17 16 16 14 10 8 6 6 6 7 7 7 8 8
17 18 18 18 19 18 18 18 18 18 18 18 18 18 18 17 17 17 17 18 18 18 19 19 19 18 16 17 17 17 17 14 11 11 9 10 7 7 7 6 6 7 7 6 6
17 18 18 18 18 18 18 18 18 18 18 18 18 18 18 16 17 18 18 18 18 18 18 18 18 18 17 17 16 16 15 13 12 11 10 8 8 8 6 6 7 7 6 6 6
17 17 18 18 18 18 18 18 18 18 18 18 18 18 18 17 17 18 18 18 18 18 18 18 18 18 18 17 17 17 14 13 13 12 10 13 7 6 6 6 5 5 5 5 4
17 17 18 18 18 18 18 18 18 18 18 18 18 18 18 18 18 19 19 19 19 18 18 19 19 18 17 16 16 14 13 13 12 12 11 11 5 6 5 5 4 4 4 4 4
17 17 17 18 18 18 18 18 18 18 18 19 19 19 18 18 19 19 19 19 19 19 19 19 19 16 16 13 12 10 13 14 13 8 10 8 5 4 4 4 3 4 4 4 5
17 17 17 17 18 18 18 18 18 18 18 19 18 19 18 17 17 19 19 19 19 19 19 18 16 11 10 10 12 13 13 12 11 8 7 5 3 4 3 3 2 3 3 3 3
17 17 17 18 18 18 18 18 19 18 18 17 17 17 17 18 18 19 19 19 19 18 13 14 11 10 11 12 13 13 13 13 10 7 5 4 3 3 3 3 2 2 2 3 3
17 17 17 18 18 18 18 18 18 18 17 17 17 17 17 18 18 19 19 18 16 13 13 11 10 11 11 11 12 13 12 11 8 7 5 4 2 2 3 2 2 2 2 2 2
17 17 17 18 18 18 18 19 18 18 17 17 17 17 17 17 15 16 17 16 13 11 10 11 13 12 13 10 10 11 12 11 11 6 4 4 2 3 3 2 2 2 2 1 1
17 17 18 18 18 18 18 18 18 18 12 14 17 17 17 17 15 15 15 15 14 13 11 11 12 12 11 11 10 12 12 11 10 7 7 5 5 2 2 2 2 2 2 1 0
18 18 18 18 18 18 18 18 18 18 15 15 16 17 16 15 14 15 15 16 12 11 13 13 11 11 11 11 11 11 9 9 9 7 8 6 6 1 2 1 1 2 2 1 0
18 18 18 17 18 18 18 18 18 14 15 15 15 14 15 14 13 15 14 15 13 11 10 11 12 11 11 11 11 9 9 9 6 6 8 7 6 1 1 2 1 2 2 1 -0
17 18 17 17 18 18 18 19 14 13 15 14 14 13 12 11 11 9 8 7 7 12 8 9 11 10 11 11 9 7 6 8 10 8 10 6 5 1 2 2 2 2 1 0 -1
17 18 17 18 18 18 18 14 15 14 14 14 13 13 12 11 9 8 8 7 6 7 5 8 11 10 10 10 10 8 6 7 10 8 7 5 5 2 1 3 2 2 1 -0 -2
17 17 17 17 17 18 18 12 13 13 13 14 13 13 12 11 10 8 6 7 7 6 9 7 11 9 10 10 9 9 6 7 7 5 4 2 2 2 2 2 2 1 0 -1 -2
17 17 17 17 17 17 12 11 11 11 12 13 14 12 13 10 11 9 8 7 7 7 7 8 8 9 9 10 9 8 8 7 4 7 7 4 2 2 1 -0 -0 0 0 -1 -3
17 17 16 17 17 18 11 10 11 11 12 13 12 12 11 11 10 9 8 7 7 7 7 6 6 10 8 7 7 6 6 4 3 3 5 3 3 -0 1 0 -1 0 0 -2 -3
17 14 16 17 15 8 8 10 12 12 12 12 11 11 11 10 9 9 8 7 7 7 7 5 4 6 8 6 5 6 5 4 3 4 1 0 2 3 1 1 0 1 -1 -2 -4
17 16 16 16 11 7 9 9 10 11 10 11 11 11 10 9 10 8 7 7 7 7 6 6 5 6 9 7 6 5 5 4 1 0 1 1 2 1 1 1 1 -0 -1 -3 -5
17 12 15 16 12 9 9 10 10 10 10 11 10 11 10 9 7 7 7 7 7 7 6 6 3 6 7 7 4 4 5 4 2 1 1 -0 -0 0 -1 -1 -0 -1 -3 -5 -6
17 13 13 10 11 10 10 9 10 10 10 10 10 10 10 9 9 7 6 6 7 6 6 4 5 4 4 4 3 4 4 3 2 1 1 2 -0 -0 -1 -1 -0 -2 -4 -5 -7
17 15 13 11 11 11 10 11 10 8 9 10 9 8 8 9 9 7 6 5 7 6 4 2 4 3 4 2 2 3 2 2 2 2 0 0 -1 1 1 -0 -1 -3 -5 -7 -8
16 16 17 8 10 11 10 9 10 9 7 8 8 7 7 6 7 6 6 6 6 5 3 2 2 2 2 0 2 2 1 2 2 2 1 -1 -0 -0 -1 -1 -3 -5 -6 -7 -8
Height
1519 1518 1518 1518 1518 1519 1519 1520 1521 1521 1522 1523 1525 1526 1527 1527 1528 1528 1527 1529 1529 1529 1529 1528 1529 1529 1529 1530 1530 1532 1547 1557 1549 1547 1550 1550 1552 1557 1565 1561 1560 1568 1573 1574 1568
1519 1519 1519 1518 1520 1520 1521 1522 1523 1523 1525 1526 1528 1528 1529 1530 1530 1529 1531 1530 1531 1531 1531 1530 1530 1530 1530 1532 1533 1534 1551 1546 1544 1545 1559 1557 1555 1559 1566 1566 1570 1574 1574 1572 1567
1519 1519 1519 1519 1520 1521 1522 1524 1525 1526 1528 1529 1530 1531 1531 1531 1532 1534 1534 1533 1533 1533 1533 1532 1532 1532 1532 1534 1537 1538 1547 1544 1547 1548 1551 1557 1560 1563 1566 1577 1585 1583 1579 1574 1567
1520 1519 1519 1519 1521 1523 1524 1525 1527 1528 1531 1532 1533 1532 1532 1532 1541 1538 1537 1536 1536 1535 1535 1534 1534 1534 1536 1538 1539 1543 1544 1546 1549 1550 1552 1563 1573 1573 1579 1590 1589 1585 1582 1576 1570
1520 1520 1520 1520 1521 1523 1525 1527 1529 1532 1533 1534 1534 1534 1535 1535 1540 1540 1539 1538 1537 1537 1536 1536 1536 1537 1540 1541 1542 1544 1547 1552 1556 1552 1561 1564 1573 1579 1590 1592 1591 1587 1581 1578 1575
1521 1520 1520 1521 1522 1525 1527 1530 1532 1534 1535 1536 1537 1537 1537 1536 1542 1541 1540 1540 1539 1539 1539 1538 1539 1539 1541 1543 1545 1548 1550 1558 1561 1560 1566 1568 1580 1581 1596 1594 1590 1586 1584 1582 1579
1522 1522 1522 1523 1525 1527 1530 1533 1534 1536 1537 1538 1539 1539 1539 1546 1543 1542 1541 1541 1541 1540 1540 1539 1539 1540 1540 1543 1546 1549 1553 1558 1563 1562 1568 1564 1585 1597 1599 1596 1592 1591 1590 1587 1584
1523 1524 1524 1526 1528 1531 1533 1536 1537 1539 1540 1541 1541 1541 1543 1545 1543 1543 1542 1542 1542 1542 1542 1542 1541 1541 1542 1545 1548 1553 1556 1567 1569 1565 1565 1566 1603 1600 1600 1595 1594 1593 1591 1589 1587
1525 1526 1528 1530 1531 1534 1536 1538 1540 1542 1542 1542 1543 1543 1546 1547 1543 1544 1544 1543 1543 1544 1544 1543 1543 1545 1546 1551 1560 1564 1570 1567 1567 1568 1566 1569 1601 1604 1605 1599 1598 1595 1592 1589 1586
1528 1530 1532 1533 1535 1537 1539 1541 1543 1544 1544 1544 1545 1547 1550 1550 1547 1546 1545 1545 1545 1545 1545 1545 1547 1555 1555 1560 1580 1572 1571 1571 1576 1583 1577 1588 1605 1607 1608 1603 1602 1599 1596 1594 1590
1530 1532 1535 1536 1537 1540 1541 1543 1547 1548 1547 1550 1552 1552 1552 1551 1549 1546 1546 1546 1546 1547 1554 1553 1560 1570 1568 1565 1564 1564 1568 1571 1577 1583 1589 1600 1605 1609 1609 1605 1602 1601 1598 1595 1592
1532 1535 1537 1538 1540 1542 1543 1544 1545 1548 1552 1553 1554 1553 1553 1552 1549 1548 1548 1549 1550 1557 1555 1563 1573 1570 1567 1566 1565 1564 1568 1575 1584 1583 1588 1603 1609 1611 1609 1607 1604 1602 1598 1596 1593
1534 1537 1539 1541 1543 1544 1544 1545 1547 1548 1550 1555 1555 1555 1555 1556 1555 1554 1552 1554 1556 1562 1565 1570 1572 1567 1566 1571 1570 1569 1569 1571 1572 1586 1591 1600 1614 1610 1609 1608 1605 1602 1600 1598 1593
1536 1539 1541 1543 1547 1545 1547 1548 1549 1549 1561 1564 1559 1560 1558 1556 1559 1560 1558 1559 1560 1567 1568 1572 1571 1570 1572 1573 1574 1570 1567 1568 1571 1581 1588 1591 1602 1611 1607 1604 1603 1601 1598 1595 1591
1537 1540 1542 1544 1545 1546 1549 1549 1549 1550 1582 1567 1563 1563 1562 1560 1565 1562 1561 1561 1567 1569 1568 1576 1574 1574 1575 1574 1572 1572 1568 1568 1569 1578 1579 1590 1593 1606 1607 1607 1603 1599 1596 1594 1591
1537 1540 1542 1544 1545 1547 1548 1549 1551 1564 1581 1569 1566 1566 1564 1566 1567 1567 1564 1565 1569 1570 1570 1575 1574 1573 1574 1572 1572 1567 1567 1569 1575 1578 1581 1583 1586 1610 1609 1607 1604 1600 1599 1595 1590
1538 1540 1542 1544 1546 1547 1549 1551 1565 1580 1572 1575 1572 1570 1572 1575 1574 1574 1578 1579 1587 1579 1590 1582 1576 1575 1575 1575 1572 1574 1577 1585 1580 1581 1574 1583 1587 1604 1603 1602 1601 1598 1596 1593 1590
1539 1540 1542 1543 1545 1548 1550 1554 1572 1574 1574 1572 1572 1573 1577 1579 1581 1581 1583 1591 1589 1591 1600 1595 1584 1581 1579 1580 1582 1584 1588 1596 1590 1590 1585 1586 1590 1601 1599 1599 1598 1597 1594 1591 1586
1540 1541 1542 1544 1546 1549 1552 1571 1574 1572 1573 1573 1574 1577 1582 1581 1582 1585 1593 1595 1595 1595 1594 1599 1587 1582 1581 1580 1580 1581 1594 1592 1596 1598 1605 1602 1603 1601 1600 1599 1597 1594 1592 1589 1585
1541 1543 1544 1545 1547 1550 1555 1573 1573 1572 1572 1574 1577 1581 1583 1586 1585 1588 1592 1597 1597 1595 1595 1596 1596 1587 1584 1583 1584 1586 1592 1597 1611 1602 1596 1593 1601 1599 1603 1600 1596 1592 1588 1585 1583
1542 1543 1546 1547 1549 1551 1566 1572 1572 1573 1572 1574 1579 1582 1586 1586 1588 1593 1597 1599 1597 1596 1594 1597 1601 1589 1587 1593 1594 1595 1598 1605 1611 1615 1610 1615 1597 1603 1601 1599 1596 1590 1586 1585 1581
1542 1545 1546 1548 1552 1561 1569 1568 1571 1572 1573 1574 1576 1580 1584 1587 1591 1594 1595 1597 1597 1596 1597 1598 1604 1601 1594 1596 1594 1595 1599 1605 1614 1611 1620 1626 1604 1597 1600 1598 1594 1590 1587 1584 1580
1541 1544 1547 1548 1559 1568 1569 1570 1572 1572 1574 1575 1579 1580 1583 1588 1592 1594 1596 1597 1596 1596 1598 1597 1602 1603 1594 1599 1595 1597 1599 1602 1611 1616 1616 1619 1600 1596 1597 1595 1593 1589 1586 1582 1578
1541 1546 1548 1548 1552 1556 1566 1571 1574 1574 1575 1576 1579 1580 1583 1588 1592 1596 1597 1597 1597 1597 1598 1598 1605 1602 1601 1596 1602 1601 1599 1601 1607 1617 1613 1611 1603 1596 1594 1593 1589 1588 1585 1582 1577
1539 1542 1544 1553 1555 1555 1560 1569 1574 1575 1575 1576 1580 1581 1583 1589 1592 1595 1596 1597 1597 1597 1597 1598 1602 1605 1601 1602 1602 1599 1599 1600 1606 1606 1609 1599 1603 1597 1593 1591 1588 1584 1581 1578 1573
1538 1540 1545 1551 1554 1556 1562 1568 1571 1576 1577 1577 1579 1583 1585 1586 1589 1594 1594 1596 1595 1598 1599 1601 1603 1605 1600 1602 1603 1599 1599 1600 1603 1603 1603 1602 1601 1593 1592 1589 1586 1581 1579 1575 1571
1537 1538 1541 1555 1556 1558 1563 1567 1569 1572 1580 1579 1580 1583 1589 1591 1589 1591 1592 1593 1594 1597 1600 1603 1606 1610 1608 1607 1602 1601 1598 1598 1598 1599 1599 1602 1596 1593 1590 1588 1583 1579 1577 1575 1570
Wind_Speed
5 4 3 5 6 8 9 9 9 11 14 17 18 17 17 15 11 8 9 6 6 8 8 8 7 6 8 7 8 4 5 3 1 3 4 15 7 24 22 31 42 23 25 21 28
3 3 3 4 4 6 9 11 11 15 17 17 16 15 15 14 17 19 12 6 6 7 6 7 8 9 6 5 5 6 4 2 1 3 7 22 12 7 13 26 26 32 30 31 33
3 2 2 3 4 7 9 12 13 16 16 14 11 6 3 5 9 15 13 9 7 5 7 8 8 8 7 6 6 2 4 3 7 10 14 13 36 11 5 13 20 21 30 34 36
3 3 4 3 6 10 11 13 14 16 13 10 9 7 5 3 5 9 9 8 8 7 7 8 6 4 4 4 5 5 4 6 6 7 11 15 25 40 33 20 25 28 30 34 38
5 4 2 6 10 12 13 15 15 15 12 9 7 10 11 17 10 9 7 5 6 6 7 7 10 4 3 2 4 4 6 16 27 41 41 42 29 24 25 23 25 29 32 34 35
5 5 6 10 14 14 15 16 16 14 9 9 11 10 13 21 13 11 6 7 7 6 8 10 7 6 5 4 5 7 21 22 20 20 15 25 18 9 16 21 28 30 31 30 31
7 8 12 15 16 16 18 19 15 16 19 23 23 24 28 14 15 11 6 7 8 9 9 9 8 8 2 3 6 13 16 13 10 6 15 19 18 7 14 23 28 29 30 33 33
9 13 17 17 18 21 24 22 19 16 14 15 14 16 11 19 10 8 8 7 7 8 8 11 11 5 5 3 6 5 5 4 5 6 11 7 3 12 14 27 30 31 32 33 34
11 16 18 19 22 23 21 17 15 14 8 9 7 8 5 18 13 12 9 6 6 8 10 8 7 11 8 4 5 7 3 5 1 24 4 9 6 15 18 28 29 33 33 32 32
13 17 18 22 22 19 18 15 12 12 10 7 7 6 10 11 19 10 12 7 5 6 5 8 8 4 6 7 2 3 2 4 5 6 20 20 13 13 16 29 28 33 34 35 35
14 17 19 20 19 21 21 17 11 13 25 15 14 11 13 5 17 9 5 8 8 9 5 11 9 5 3 2 2 2 3 4 3 6 9 13 12 6 13 26 27 30 35 33 32
13 17 18 20 22 20 13 2 6 14 13 17 17 10 14 18 10 16 14 10 12 4 2 7 6 5 3 5 3 3 4 3 4 2 9 9 9 6 11 11 19 24 29 31 30
13 17 18 19 14 14 1 13 16 8 6 7 11 13 7 9 13 17 9 6 8 8 8 7 3 6 3 6 7 3 4 4 4 6 10 13 4 2 3 8 16 24 25 30 31
12 16 17 15 4 6 12 12 4 0 5 10 8 9 14 3 7 17 9 4 6 3 3 6 5 4 8 5 2 2 1 5 4 5 3 4 2 3 3 3 10 21 26 26 32
9 14 17 15 1 13 12 6 3 0 4 7 6 5 16 9 3 20 12 11 4 4 2 1 6 6 5 3 2 6 4 1 3 5 4 4 1 2 2 5 6 13 19 24 29
6 9 14 13 5 12 10 1 5 5 2 4 5 7 5 13 7 9 10 9 5 5 8 2 2 2 2 3 2 8 3 3 4 3 1 1 4 4 1 2 5 11 19 23 28
6 7 10 8 7 11 10 1 5 5 3 4 3 4 4 6 6 9 6 9 5 4 7 7 3 5 5 5 7 10 6 4 5 4 4 3 2 2 4 3 5 11 18 22 27
5 6 8 7 8 11 8 4 6 2 0 1 2 2 5 6 5 8 3 5 6 5 4 4 4 5 9 3 1 4 4 4 4 4 5 3 3 2 6 5 6 11 18 19 26
7 7 8 10 11 12 3 5 4 3 0 2 3 4 5 4 4 5 5 2 2 6 3 4 2 4 5 4 2 2 5 1 1 2 2 1 2 4 1 8 12 14 19 21 31
8 8 9 10 10 9 5 4 2 1 1 2 2 2 2 6 3 4 3 3 4 5 1 0 4 3 4 1 10 6 2 4 4 6 7 3 2 2 4 7 10 17 24 22 28
10 4 6 10 9 3 4 3 2 2 2 3 2 3 2 2 3 2 2 1 3 5 4 2 2 3 2 5 1 5 3 6 4 3 3 4 4 5 3 5 8 20 22 23 31
6 3 8 10 4 5 3 4 4 2 3 3 4 3 3 2 3 2 2 0 4 2 2 1 3 3 1 2 1 2 3 4 4 4 2 1 5 4 2 12 13 22 22 26 27
7 5 5 7 4 2 2 3 3 2 3 2 3 3 2 3 2 2 2 1 5 3 2 1 1 4 2 2 1 4 2 3 4 3 5 3 4 2 8 12 25 25 26 25 25
5 3 3 3 6 8 6 3 3 4 3 5 4 3 3 3 5 4 2 1 3 4 5 2 2 3 5 4 1 4 2 3 4 3 3 5 6 7 10 10 24 24 21 20 23
4 2 4 2 1 8 5 4 4 2 3 3 3 3 3 3 2 2 1 0 1 2 3 3 1 1 3 1 2 3 3 4 6 4 4 3 6 6 7 15 24 26 25 18 27
5 6 7 6 13 8 2 2 4 2 1 0 5 3 3 4 1 7 5 3 3 2 2 3 1 1 3 2 5 4 4 3 3 3 6 5 6 3 20 21 22 25 18 20 27
5 10 6 2 3 3 3 5 6 10 4 4 9 5 4 2 9 8 6 7 5 5 2 2 2 2 4 5 5 5 7 5 3 3 4 4 5 8 13 18 21 21 13 23 28
Wind_Direction
47 58 64 66 78 93 106 104 98 104 113 114 113 102 91 81 76 72 53 49 71 84 79 77 61 54 61 57 51 52 61 56 53 56 62 22 93 66 70 65 60 66 59 51 51
27 43 62 62 96 112 113 106 104 113 117 117 118 108 91 76 64 54 43 56 93 97 72 61 51 51 61 39 35 69 87 136 87 85 98 60 62 63 60 44 43 53 58 55 53
9 20 89 62 107 122 121 117 117 121 120 116 115 112 56 34 50 26 35 59 83 66 54 46 42 49 56 43 23 64 119 182 53 92 115 99 53 50 69 41 34 36 44 46 48
16 41 37 81 140 138 125 123 124 126 120 108 90 69 75 22 72 22 40 67 70 57 52 40 32 44 57 52 19 83 50 46 11 94 82 78 77 62 65 72 68 63 56 48 43
37 33 70 130 137 129 122 129 127 124 118 104 78 79 83 77 42 37 40 55 48 44 44 40 46 52 65 33 64 59 70 63 86 91 92 90 77 82 64 72 62 59 54 47 41
46 74 99 120 124 122 127 131 128 123 112 111 86 80 77 69 40 33 44 60 56 53 40 44 41 55 73 52 67 47 98 110 93 92 80 84 51 67 58 72 66 58 52 47 42
74 94 107 116 119 123 125 125 121 115 107 106 94 79 59 48 16 19 54 61 63 62 58 54 62 61 76 110 68 115 94 83 27 117 141 84 46 58 66 73 58 48 46 45 41
98 107 111 114 119 122 122 114 117 121 108 98 87 81 74 24 32 65 62 68 70 60 60 62 56 61 46 43 36 49 61 71 9 12 13 116 68 48 73 65 53 47 44 39 35
111 119 116 119 121 123 125 117 112 119 118 88 60 77 52 33 71 70 62 82 64 75 67 63 55 44 34 60 34 13 73 46 72 10 93 62 117 62 68 61 50 46 43 41 36
121 130 124 126 123 125 122 112 101 103 103 98 58 80 30 9 36 69 68 66 96 101 44 42 60 71 33 45 74 327 18 56 53 38 70 85 89 71 63 58 47 40 36 32 28
128 137 136 135 131 130 123 116 103 75 73 78 73 79 36 69 49 74 46 44 73 70 50 31 61 41 14 54 220 199 105 86 106 145 72 88 94 73 62 53 42 37 31 26 20
134 143 145 142 139 140 138 51 132 123 78 72 66 67 53 52 50 59 64 70 61 48 358 34 47 323 238 1 76 100 119 89 74 105 95 112 92 76 60 59 49 37 31 21 10
147 151 152 150 155 165 272 130 124 110 86 37 38 34 22 26 44 16 41 65 67 49 41 95 305 323 73 26 33 359 128 190 189 99 69 124 98 101 69 65 40 33 23 16 10
154 163 164 162 170 202 145 138 129 311 78 335 358 21 8 50 50 18 37 42 43 133 138 88 350 38 36 53 22 337 111 266 181 143 196 203 209 221 213 19 24 19 14 8 5
144 179 177 180 184 157 159 139 32 27 56 328 357 34 36 76 330 15 31 75 68 8 89 355 15 7 41 340 337 260 336 262 143 141 114 166 8 227 287 355 342 348 357 1 355
133 171 192 207 209 176 176 175 342 44 74 356 8 3 34 29 30 23 48 69 64 55 31 47 4 64 292 308 335 281 41 64 61 105 48 248 178 175 188 278 295 327 352 350 353
122 163 177 189 186 176 175 328 39 87 321 343 2 16 89 10 19 27 34 38 46 36 10 344 351 343 13 9 1 15 29 353 1 359 234 154 74 231 189 229 266 304 338 345 347
122 146 171 177 170 169 164 57 75 223 279 167 56 57 74 7 15 11 56 38 24 37 71 29 334 13 341 81 285 27 77 113 300 288 277 355 214 256 196 219 305 321 328 336 351
130 120 131 139 150 159 153 57 165 195 205 147 80 70 17 15 99 66 44 68 3 21 78 7 290 328 49 38 89 314 50 191 272 294 358 124 338 346 243 286 309 319 337 349 352
141 120 118 136 140 151 77 135 140 206 100 29 79 14 64 349 49 52 18 354 354 24 121 218 326 40 308 27 30 86 136 24 18 338 312 290 252 194 302 299 310 329 346 343 350
157 121 118 134 137 100 104 141 136 77 116 81 132 102 79 64 72 59 34 336 7 331 61 54 94 288 27 26 324 2 34 62 125 141 238 304 280 205 227 310 317 330 343 341 345
171 82 144 147 63 58 97 129 133 108 73 78 89 93 93 88 65 70 108 311 351 340 59 27 138 279 105 43 48 116 128 109 127 262 190 129 277 154 24 327 325 341 341 335 344
150 109 123 169 125 89 127 72 79 100 38 78 97 66 83 105 95 95 120 233 14 62 100 88 35 341 358 31 345 77 103 116 99 85 213 157 268 172 310 349 350 343 334 334 340
168 94 102 105 106 127 135 123 102 62 86 79 119 100 100 94 21 146 163 303 10 70 64 89 106 178 211 242 230 287 204 160 145 154 186 235 302 324 336 329 338 340 333 340 336
176 124 135 140 98 111 98 124 131 119 80 94 65 70 138 122 89 132 148 53 6 21 56 85 202 297 271 11 271 257 236 187 195 199 181 271 298 294 304 328 329 333 334 336 343
172 143 98 82 124 104 53 157 139 140 64 83 121 89 17 123 161 203 147 188 218 56 68 15 107 8 275 277 302 256 191 171 200 201 264 287 290 224 331 334 335 329 332 335 342
181 150 143 76 102 96 169 165 171 132 62 82 133 105 68 116 110 97 102 107 140 147 116 77 110 53 268 339 327 298 208 189 203 210 205 259 249 323 327 333 328 327 334 343 339